Weather History for KPOF - August, 2013

Change the Weather History Date:

Friday, August 2, 2013

  Actual Average (KCGI) Record (KCGI)
Temperature  
Mean Temperature 78 °F 78 °F  
Max Temperature 86 °F 89 °F 100 °F (1970)
Min Temperature 69 °F 67 °F 57 °F (1977)
Degree Days  
Heating Degree Days 0 0  
Month to date heating degree days 0  
Since 1 June heating degree days 4  
Since 1 July heating degree days 0  
Cooling Degree Days 12 13  
Month to date cooling degree days 26  
Year to date cooling degree days 912  
Since 1 June cooling degree days 760  
Growing Degree Days 28 (Base 50)    
Moisture  
Dew Point 69 °F    
Average Humidity 80    
Maximum Humidity 94    
Minimum Humidity 59    
Precipitation  
Precipitation 0.54 in 0.10 in 2.25 in (1994)
Month to date precipitation 0.20  
Year to date precipitation 28.23  
Sea Level Pressure  
Sea Level Pressure 29.98 in    
Wind  
Wind Speed 3 mph (South)    
Max Wind Speed 33 mph    
Max Gust Speed 41 mph    
Visibility 6 miles    
Events Rain , Thunderstorm    
T = Trace of Precipitation, MM = Missing Value Source: NWS Daily Summary

Daily Weather History Graph

Daily Weather History Graph

Search for Another Location

Airport or City:

Trip Planner

Search our weather history database for the weather conditions in past years. The results will help you decide how hot, cold, wet, or windy it might be!

Date:

Astronomy

Aug. 02, 2013 Rise Set
Actual Time 6:08 AM CDT 8:06 PM CDT
Civil Twilight 5:39 AM CDT 8:34 PM CDT
Nautical Twilight 5:04 AM CDT 9:09 PM CDT
Astronomical Twilight 4:27 AM CDT 9:46 PM CDT
Moon 2:30 AM CDT (8/2) 5:03 PM CDT (8/2)
Length of Visible Light 14h 55m
Length of Day
13h 58m
Waning Crescent, 15% of the Moon is Illuminated
Aug 2
Waning Crescent
Aug 6
New
Aug 14
First Quarter
Aug 20
Full
Aug 28
Last Quarter

Hourly Weather History & Observations

Time (CDT) Temp. Heat Index Dew Point Humidity Pressure Visibility Wind Dir Wind Speed Gust Speed Precip Events Conditions
12:53 AM 73.0 °F - 70.0 °F 90% 30.00 in 5.0 mi Calm Calm - N/A   Clear
1:53 AM 72.0 °F - 69.1 °F 91% 29.99 in 2.0 mi Calm Calm - N/A   Clear
2:07 AM 71.6 °F - 69.8 °F 94% 29.99 in 4.0 mi Calm Calm - N/A   Clear
2:18 AM 71.6 °F - 69.8 °F 94% 29.99 in 0.8 mi Calm Calm - N/A   Clear
2:32 AM 71.6 °F - 68.0 °F 88% 29.99 in 2.5 mi Calm Calm - N/A   Clear
2:39 AM 71.6 °F - 68.0 °F 88% 29.99 in 3.0 mi Calm Calm - N/A   Clear
2:50 AM 71.6 °F - 69.8 °F 94% 29.99 in 2.0 mi Calm Calm - N/A   Partly Cloudy
2:53 AM 71.1 °F - 68.0 °F 90% 29.97 in 1.0 mi Calm Calm - N/A   Mist
3:04 AM 71.6 °F - 68.0 °F 88% 29.99 in 2.0 mi Calm Calm - N/A   Partly Cloudy
3:12 AM 71.6 °F - 68.0 °F 88% 29.99 in 5.0 mi Calm Calm - N/A   Partly Cloudy
3:53 AM 70.0 °F - 66.9 °F 90% 29.98 in 5.0 mi Calm Calm - N/A   Clear
4:53 AM 69.1 °F - 66.9 °F 93% 29.98 in 4.0 mi Calm Calm - N/A   Clear
5:53 AM 69.1 °F - 66.0 °F 90% 29.98 in 3.0 mi Calm Calm - N/A   Clear
6:53 AM 70.0 °F - 66.9 °F 90% 29.99 in 3.0 mi Calm Calm - N/A   Clear
7:53 AM 73.0 °F - 69.1 °F 87% 30.00 in 5.0 mi Calm Calm - N/A   Clear
8:53 AM 75.9 °F - 70.0 °F 82% 30.01 in 9.0 mi Calm Calm - N/A   Clear
9:53 AM 79.0 °F - 70.0 °F 74% 30.01 in 10.0 mi SSW 3.5 mph - N/A   Clear
10:53 AM 82.0 °F 85.9 °F 70.0 °F 67% 30.01 in 10.0 mi South 6.9 mph - N/A   Clear
11:53 AM 84.0 °F 88.4 °F 70.0 °F 63% 30.00 in 10.0 mi SSW 10.4 mph - N/A   Clear
12:53 PM 84.0 °F 89.0 °F 71.1 °F 65% 29.99 in 10.0 mi SSW 8.1 mph - N/A   Clear
1:53 PM 84.0 °F 88.4 °F 70.0 °F 63% 29.98 in 10.0 mi SSW 10.4 mph - N/A   Clear
2:53 PM 84.0 °F 88.4 °F 70.0 °F 63% 29.98 in 10.0 mi South 8.1 mph - N/A   Clear
3:53 PM 86.0 °F 90.7 °F 70.0 °F 59% 29.96 in 10.0 mi South 10.4 mph - N/A   Partly Cloudy
4:53 PM 82.9 °F 86.5 °F 69.1 °F 63% 29.93 in 10.0 mi South 9.2 mph 16.1 mph N/A   Partly Cloudy
5:53 PM 82.0 °F 85.5 °F 69.1 °F 65% 29.93 in 10.0 mi South 4.6 mph - N/A   Clear
6:53 PM 81.0 °F 84.4 °F 70.0 °F 69% 29.93 in 10.0 mi South 5.8 mph - N/A   Clear
7:20 PM 80.6 °F 83.9 °F 69.8 °F 70% 29.93 in 10.0 mi SSE 8.1 mph - N/A Thunderstorm Clear
7:53 PM 81.0 °F 84.1 °F 69.1 °F 67% 29.99 in 9.0 mi NNW 33.4 mph 41.4 mph N/A Thunderstorm Thunderstorm
7:56 PM 78.8 °F - 69.8 °F 74% 30.03 in 1.5 mi North 15.0 mph 41.4 mph 0.00 in Rain , Thunderstorm Heavy Thunderstorms and Rain
8:01 PM 73.4 °F - 66.2 °F 78% 30.00 in 0.2 mi ESE 9.2 mph 41.4 mph 0.27 in Rain , Thunderstorm Heavy Thunderstorms and Rain
8:10 PM 73.4 °F - 66.2 °F 78% 29.97 in 1.2 mi South 16.1 mph 19.6 mph 0.53 in Rain , Thunderstorm Light Thunderstorms and Rain
8:12 PM 73.4 °F - 66.2 °F 78% 29.97 in 3.0 mi SSE 12.7 mph 19.6 mph 0.53 in Rain , Thunderstorm Light Thunderstorms and Rain
8:42 PM 73.4 °F - 66.2 °F 78% 29.97 in 10.0 mi SE 6.9 mph - 0.54 in   Mostly Cloudy
8:53 PM 73.0 °F - 68.0 °F 84% 29.96 in 10.0 mi SE 6.9 mph - 0.54 in   Mostly Cloudy
9:53 PM 73.0 °F - 66.9 °F 81% 29.95 in 10.0 mi SSE 5.8 mph - N/A   Scattered Clouds
10:53 PM 72.0 °F - 69.1 °F 91% 29.94 in 8.0 mi Calm Calm - N/A   Partly Cloudy
11:53 PM 73.0 °F - 69.1 °F 87% 29.94 in 7.0 mi Calm Calm - N/A   Mostly Cloudy